sat.trackr.live / text

‹ back to catalog

FORMOSAT 7-4

NORAD 44350 · 2019-036M

PAYLOAD ACTIVE UNKNOWN

§ Identity

Operator
Country
ROC
Launch date
2019-06-25
Launch site
AFETR
Launch vehicle
Mass (kg)
RCS (m²)

External: N2YO · Heavens-Above · Gunter

§ Orbital elements

Epoch: 2026-05-24T23:57:15.084864Z

Period
96.23 min
Inclination
23.9978°
Eccentricity
0.0000739
Mean motion
14.96389659 rev/d
Perigee alt
577.5 km
Apogee alt
578.6 km
Semi-major
6,956.2 km
B*
1.6427e-4
RAAN
250.8231°
Arg perigee
285.6101°
Mean anomaly
74.4318°
Rev number
38,059

§ Raw data

FORMOSAT 7-41 44350U 19036M   26144.99809126  .00002209  00000+0  16427-3 0  99912 44350  23.9978 250.8231 0000739 285.6101  74.4318 14.96389659380591

JSON: /api/v1/satellites/44350 · /tle

For live sub-satellite position, see the globe view (requires WebGL).

§ Visibility from observer

Set your observer location to see the next 7 days of passes ≥ 10°. The values pass through the URL so the page stays shareable.

No JS? Fill the form by hand. The geolocation button needs JavaScript.

§ Radio — SatNOGS DB

ModeDescriptionDownlinkUplink
CW CW 400.900 MHz
FM Mode S TT&C 2.264 GHz
FM Mode S2 2.200 GHz

3 transmitters · refreshed weekly from db.satnogs.org